Location: Unspecified
(0.0000°N, 0.0000°E)
Time: 05:39:13
(UTC+00:00)

Vanguard 2 Rocket - Pass Details

Date: 15 December 2017
Orbit: 556 x 3326 km, 32.9° (Epoch: 17 January)

Event Time Altitude Azimuth Distance (km) Brightness Sun altitude
Rises 16:16:46 0° 257° (WSW) 3,332 11.2 22.5°
Reaches altitude 10° 16:18:58 10° 265° (W) 2,620 10.8 22.0°
Maximum altitude 16:24:52 40° 334° (NNW) 1,813 8.7 20.7°
Drops below altitude 10° 16:34:46 10° 39° (NE) 4,384 9.9 18.4°
Sets 16:39:39 0° 45° (NE) 5,875 10.5 17.3°
